| time (UTC) | temp F | wind direction | speed MPH | gust MPH | rain 1hr in | rain 24hr in | rain mn in | humidity % | barometer mb |
| 20260505023104 | 67 | 175 | 0.0 | 0.0 | 0.00 | 0.00 | 0.00 | 65 | 1002.2 |
| 20260505021504 | 67 | 175 | 0.0 | 0.0 | 0.00 | 0.00 | 0.00 | 64 | 1002.1 |
| 20260505020007 | 68 | 171 | 0.0 | 0.0 | 0.00 | 0.00 | 0.00 | 63 | 1002.0 |
| 20260505014503 | 68 | 162 | 0.0 | 0.0 | 0.00 | 0.00 | 0.00 | 62 | 1001.9 |
| 20260505013001 | 69 | 169 | 0.0 | 0.0 | 0.00 | 0.00 | 0.00 | 61 | 1001.7 |
| 20260505011619 | 69 | 188 | 0.0 | 1.0 | 0.00 | 0.00 | 0.00 | 61 | 1001.6 |
| 20260505010108 | 70 | 169 | 0.0 | 0.0 | 0.00 | 0.00 | 0.00 | 60 | 1001.7 |
| 20260505004601 | 70 | 205 | 0.0 | 0.0 | 0.00 | 0.00 | 0.00 | 58 | 1001.7 |
| 20260505003058 | 71 | 232 | 0.0 | 0.0 | 0.00 | 0.00 | 0.00 | 57 | 1001.8 |
| 20260505001557 | 72 | 233 | 0.0 | 1.0 | 0.00 | 0.00 | 0.00 | 56 | 1001.8 |
| 20260505000106 | 72 | 230 | 0.0 | 0.0 | 0.00 | 0.00 | 0.00 | 55 | 1001.9 |
| 20260504234605 | 73 | 204 | 0.0 | 1.0 | 0.00 | 0.00 | 0.00 | 54 | 1001.9 |
| 20260504233055 | 74 | 269 | 0.0 | 0.0 | 0.00 | 0.00 | 0.00 | 53 | 1002.1 |
| 20260504231552 | 74 | 238 | 0.0 | 1.0 | 0.00 | 0.00 | 0.00 | 52 | 1002.1 |
| 20260504230054 | 74 | 255 | 0.0 | 11.0 | 0.00 | 0.00 | 0.00 | 52 | 1002.3 |
| 20260504224553 | 74 | 221 | 0.0 | 6.0 | 0.00 | 0.00 | 0.00 | 54 | 1002.3 |
| 20260504223047 | 75 | 248 | 0.0 | 0.0 | 0.00 | 0.00 | 0.00 | 54 | 1002.5 |
| 20260504221548 | 75 | 207 | 0.0 | 2.0 | 0.00 | 0.00 | 0.00 | 53 | 1002.5 |
| 20260504220052 | 76 | 222 | 0.0 | 1.0 | 0.00 | 0.00 | 0.00 | 53 | 1002.5 |
| 20260504214542 | 74 | 234 | 0.0 | 1.0 | 0.00 | 0.00 | 0.00 | 55 | 1003.0 |
| 20260504213058 | 74 | 255 | 0.0 | 1.0 | 0.00 | 0.00 | 0.00 | 54 | 1003.0 |
| 20260504211543 | 75 | 226 | 0.0 | 3.0 | 0.00 | 0.00 | 0.00 | 55 | 1003.0 |
| 20260504210033 | 74 | 240 | 0.0 | 1.0 | 0.00 | 0.00 | 0.00 | 56 | 1003.2 |
| 20260504204539 | 74 | 275 | 0.0 | 4.0 | 0.00 | 0.00 | 0.00 | 56 | 1003.4 |
| 20260504203029 | 73 | 242 | 0.0 | 4.0 | 0.00 | 0.00 | 0.00 | 56 | 1003.6 |
| 20260504201527 | 73 | 224 | 0.0 | 4.0 | 0.00 | 0.00 | 0.00 | 56 | 1003.9 |
| 20260504200023 | 72 | 242 | 0.0 | 2.0 | 0.00 | 0.00 | 0.00 | 58 | 1004.1 |
| 20260504194521 | 72 | 265 | 0.0 | 5.0 | 0.00 | 0.00 | 0.00 | 60 | 1004.4 |
| 20260504193017 | 71 | 286 | 1.0 | 15.0 | 0.00 | 0.00 | 0.00 | 63 | 1004.6 |
| 20260504191516 | 70 | 176 | 0.0 | 2.0 | 0.00 | 0.00 | 0.00 | 62 | 1004.7 |
| 20260504190014 | 69 | 196 | 0.0 | 3.0 | 0.00 | 0.00 | 0.00 | 65 | 1004.9 |
| 20260504184510 | 68 | 258 | 0.0 | 7.0 | 0.00 | 0.00 | 0.00 | 65 | 1004.7 |
| 20260504183007 | 68 | 284 | 0.0 | 12.0 | 0.00 | 0.00 | 0.00 | 65 | 1004.6 |
| 20260504181505 | 67 | 205 | 0.0 | 12.0 | 0.00 | 0.00 | 0.00 | 65 | 1004.7 |
| 20260504180005 | 66 | 216 | 0.0 | 1.0 | 0.00 | 0.00 | 0.00 | 66 | 1004.9 |
| 20260504174506 | 66 | 189 | 0.0 | 2.0 | 0.00 | 0.00 | 0.00 | 64 | 1004.6 |
| 20260504173002 | 67 | 179 | 0.0 | 5.0 | 0.00 | 0.00 | 0.00 | 67 | 1004.3 |
| 20260504171506 | 66 | 258 | 0.0 | 3.0 | 0.00 | 0.00 | 0.00 | 68 | 1004.8 |
| 20260504100114 | 51 | 174 | 0.0 | 0.0 | 0.00 | 0.00 | 0.00 | 70 | 1006.6 |
| 20260504081543 | 51 | 178 | 0.0 | 1.0 | 0.00 | 0.00 | 0.00 | 69 | 1007.5 |
| 20260504050023 | 50 | 212 | 0.0 | 0.0 | 0.00 | 0.00 | 0.00 | 69 | 1009.3 |
| 20260504044532 | 50 | 212 | 0.0 | 0.0 | 0.00 | 0.00 | 0.00 | 69 | 1009.4 |
| 20260504043027 | 51 | 212 | 0.0 | 0.0 | 0.00 | 0.00 | 0.00 | 69 | 1009.4 |
| 20260504041515 | 51 | 212 | 0.0 | 0.0 | 0.00 | 0.00 | 0.00 | 69 | 1009.7 |
| 20260504040018 | 51 | 212 | 0.0 | 0.0 | 0.00 | 0.00 | 0.00 | 68 | 1009.9 |
| 20260504034513 | 52 | 214 | 0.0 | 0.0 | 0.00 | 0.00 | 0.00 | 69 | 1010.0 |
| 20260504033012 | 52 | 214 | 0.0 | 0.0 | 0.00 | 0.00 | 0.00 | 67 | 1010.0 |
| 20260504031517 | 52 | 214 | 0.0 | 0.0 | 0.00 | 0.00 | 0.00 | 67 | 1010.1 |
| 20260504030011 | 52 | 219 | 0.0 | 0.0 | 0.00 | 0.00 | 0.00 | 68 | 1010.3 |
| 20260504024510 | 53 | 219 | 0.0 | 0.0 | 0.00 | 0.00 | 0.00 | 67 | 1010.0 |